[[{"header":{"parameterUnit":"m.s-1","parameterCategory":1,"la1":30.2991,"la2":30.254,"lo1":-89.0895,"lo2":-89.0444,"dy":0.0017,"dx":0.0017,"nx":28,"ny":28,"refTime":"2024-05-23T09:00:00:Z","depth":0,"parameterNumber":2,"parameterNumberName":"U-component_of_WINDS"},"data":[0,0,0,0,0,0,0,0,0,0,0,0,0,0,0,0,0,0,0,0,0,0,0,0,0,0,0,0,0,0,0,0,0,0,0,0,0,0,0,0,0,0,0,0,0,0,0,0,0,0,0,0,0,0,0,0,0,0,-0.7783,-0.7782,0,-0.7729,-0.7728,-0.7728,-0.771,-0.771,-0.771,-0.771,-0.7654,-0.7652,-0.7651,0,0,0,0,0,0,0,0,0,0,0,0,0,-0.7869,-0.7868,-0.7783,-0.7782,-0.7781,-0.7729,-0.7728,-0.7728,-0.771,-0.771,-0.771,-0.7711,-0.7654,-0.7652,-0.765,0,0,0,0,0,0,0,0,0,0,0,0,0,-0.7825,-0.7867,-0.7783,-0.7766,-0.7764,-0.7729,-0.7728,-0.7727,-0.771,-0.771,-0.771,-0.7711,-0.7655,-0.7653,-0.765,-0.7627,0,0,-0.7642,-0.7641,0,0,0,0,0,0,0,0,-0.7828,-0.7822,-0.7769,-0.7767,-0.7765,-0.7726,-0.7738,-0.7694,-0.771,-0.773,-0.771,-0.7711,-0.7678,-0.7673,-0.7662,-0.7625,-0.7622,-0.7642,-0.764,-0.7639,-0.7639,0,0,0,0,0,0,0,-0.7831,-0.7824,-0.7761,-0.7768,-0.7766,-0.7761,-0.7755,-0.773,-0.7703,-0.7729,-0.7727,-0.7721,-0.7677,-0.7665,-0.7661,-0.7622,-0.7642,-0.764,-0.7638,-0.7637,-0.7564,-0.7564,0,0,0,0,0,0,-0.7837,-0.7827,-0.7763,-0.776,-0.7798,-0.776,-0.7753,-0.7738,-0.7703,-0.7698,-0.7721,-0.772,-0.7669,-0.7664,-0.7659,-0.7631,-0.7639,-0.7637,-0.7635,-0.7565,-0.7564,-0.7564,0,0,0,0,0,0,-0.7839,-0.7831,-0.7765,-0.7793,-0.7784,-0.7758,-0.7742,-0.7737,-0.7726,-0.7697,-0.7692,-0.7714,-0.7669,-0.7663,-0.7636,-0.7629,-0.7636,-0.7633,-0.7565,-0.7565,-0.7564,-0.7574,0,0,0,0,0,0,-0.7841,-0.7832,-0.7823,-0.7793,-0.7783,-0.7743,-0.7741,-0.7736,-0.7721,-0.772,-0.7689,-0.7685,-0.7669,-0.764,-0.7633,-0.7625,-0.7631,-0.7566,-0.7565,-0.7564,-0.7574,-0.7574,-0.7574,0,0,0,0,0,-0.7845,-0.7827,-0.7823,-0.7815,-0.7771,-0.7743,-0.7737,-0.772,-0.7721,-0.7712,-0.7694,-0.7686,-0.7631,-0.7637,-0.763,-0.7621,-0.7566,-0.7565,-0.7564,-0.7574,-0.7574,-0.7574,0,0,0,0,0,0,-0.7856,-0.7823,-0.7817,-0.779,-0.777,-0.774,-0.7727,-0.772,-0.7698,-0.7698,-0.7677,-0.767,-0.7645,-0.763,-0.7638,-0.7598,-0.7598,-0.7596,-0.7608,-0.7608,-0.7607,-0.7611,-0.7629,0,0,0,0,0,-0.7856,-0.7836,-0.7808,-0.7786,-0.7776,-0.7754,-0.7741,-0.773,-0.7707,-0.7698,-0.7678,-0.7657,-0.7635,-0.762,-0.7598,-0.7573,-0.7566,-0.7563,-0.7562,-0.7562,-0.756,-0.7547,-0.7545,-0.7561,-0.7561,-0.7561,0,0,-0.7854,-0.7834,-0.7822,-0.7788,-0.7771,-0.7751,-0.7746,-0.7725,-0.771,-0.7695,-0.7669,-0.7654,-0.7628,-0.7602,-0.759,-0.7589,-0.7555,-0.7561,-0.7561,-0.7559,-0.7545,-0.7544,-0.7543,-0.756,-0.756,-0.7561,0,0,-0.7841,-0.7824,-0.7804,-0.7788,-0.7762,-0.7747,-0.7743,-0.7715,-0.7705,-0.7678,-0.7667,-0.7649,-0.7611,-0.7594,-0.758,-0.7563,-0.7555,-0.7557,-0.7555,-0.7542,-0.754,-0.7539,-0.7534,-0.7532,-0.7555,-0.7555,-0.7555,0,-0.7842,-0.7812,-0.7795,-0.7775,-0.776,-0.7747,-0.7728,-0.7712,-0.7681,-0.7671,-0.7671,-0.7625,-0.7607,-0.7577,-0.7573,-0.7563,-0.7557,-0.756,-0.7542,-0.7541,-0.7539,-0.7534,-0.7532,-0.7555,-0.7555,-0.7555,-0.7555,0,-0.7815,-0.7794,-0.7781,-0.7752,-0.7737,-0.7717,-0.7698,-0.7684,-0.7675,-0.7661,-0.7635,-0.7613,-0.7587,-0.758,-0.757,-0.7549,-0.7549,-0.7546,-0.7546,-0.7538,-0.7533,-0.753,-0.7556,-0.7556,-0.7556,-0.7556,0,0,-0.7805,-0.7769,-0.7765,-0.7752,-0.7724,-0.7708,-0.7688,-0.7663,-0.7652,-0.7632,-0.7615,-0.7584,-0.7582,-0.7566,-0.7555,-0.7543,-0.7532,-0.7541,-0.7541,-0.7541,-0.7509,-0.7511,-0.7509,-0.7528,-0.7527,-0.7527,-0.7511,0,-0.7789,-0.7753,-0.7739,-0.7709,-0.769,-0.7679,-0.7662,-0.7643,-0.763,-0.7612,-0.7597,-0.7576,-0.7574,-0.7565,-0.7553,-0.7536,-0.7526,-0.7537,-0.7511,-0.7511,-0.7518,-0.7506,-0.7508,-0.7495,-0.7509,-0.7508,-0.7508,0,-0.7764,-0.7744,-0.7714,-0.7689,-0.7681,-0.7666,-0.7643,-0.7626,-0.7605,-0.7596,-0.758,-0.757,-0.7549,-0.7551,-0.7523,-0.7531,-0.752,-0.7511,-0.751,-0.7506,-0.7508,-0.7502,-0.749,-0.7488,-0.7504,-0.7505,-0.7505,0,-0.7761,-0.7727,-0.7704,-0.7694,-0.7665,-0.7654,-0.7642,-0.7621,-0.7608,-0.7588,-0.758,-0.7558,-0.7546,-0.7529,-0.7514,-0.7516,-0.7487,-0.7487,-0.7479,-0.7479,-0.7472,-0.7473,-0.7458,-0.7466,-0.7466,-0.7466,-0.7466,0,-0.7743,-0.7725,-0.7703,-0.7689,-0.7668,-0.7653,-0.7633,-0.7619,-0.7602,-0.7585,-0.7574,-0.7559,-0.7539,-0.7522,-0.751,-0.7489,-0.7483,-0.7476,-0.7472,-0.7476,-0.7477,-0.7468,-0.7468,-0.7465,-0.7466,-0.7466,-0.7466,0,-0.7736,-0.772,-0.7695,-0.767,-0.7664,-0.765,-0.7629,-0.7615,-0.7602,-0.7582,-0.7576,-0.7556,-0.7535,-0.7518,-0.749,-0.7482,-0.746,-0.7457,-0.7467,-0.7466,-0.7458,-0.7459,-0.7436,-0.7433,-0.7444,-0.7444,-0.7444,0,-0.7725,-0.7711,-0.7686,-0.7674,-0.7662,-0.7644,-0.7631,-0.7615,-0.7602,-0.7578,-0.7568,-0.7547,-0.7528,-0.7496,-0.7478,-0.7458,-0.7453,-0.7447,-0.745,-0.7455,-0.7454,-0.7454,-0.7453,-0.7446,-0.7446,-0.7446,-0.7446,0,-0.7709,-0.7702,-0.7684,-0.7664,-0.7649,-0.7632,-0.7614,-0.7606,-0.7587,-0.7573,-0.7552,-0.7539,-0.7511,-0.749,-0.7468,-0.7456,-0.7448,-0.7446,-0.7443,-0.7446,-0.7453,-0.745,-0.7466,-0.7446,-0.7446,-0.7446,-0.7446,-0.7446,-0.7699,-0.7687,-0.7667,-0.7648,-0.7634,-0.7618,-0.7605,-0.7591,-0.7573,-0.755,-0.7543,-0.7521,-0.7502,-0.7472,-0.7459,-0.7442,-0.7442,-0.7437,-0.7436,-0.7435,-0.7436,-0.7457,-0.7438,-0.7438,-0.7438,-0.7438,-0.7438,0,-0.7683,-0.767,-0.7652,-0.7629,-0.7614,-0.761,-0.7591,-0.7578,-0.756,-0.7543,-0.7526,-0.7503,-0.7483,-0.7465,-0.7445,-0.7435,-0.7431,-0.743,-0.743,-0.7428,-0.7437,-0.7442,-0.7434,-0.7434,-0.7434,-0.7434,-0.7434,-0.7434,-0.7672,-0.7651,-0.7642,-0.7614,-0.7602,-0.7581,-0.7571,-0.7557,-0.7543,-0.7518,-0.7502,-0.7491,-0.7474,-0.7452,-0.7434,-0.743,-0.7422,-0.7422,-0.7417,-0.7426,-0.7427,-0.7427,-0.7432,-0.7421,-0.7421,-0.7408,-0.7408,-0.7408]},{"header":{"parameterUnit":"m.s-1","parameterCategory":1,"la1":30.2991,"la2":30.254,"lo1":-89.0895,"lo2":-89.0444,"dy":0.0017,"dx":0.0017,"nx":28,"ny":28,"refTime":"2024-05-23T09:00:00:Z","depth":0,"parameterNumber":3,"parameterNumberName":"V-component_of_WINDS"},"data":[0,0,0,0,0,0,0,0,0,0,0,0,0,0,0,0,0,0,0,0,0,0,0,0,0,0,0,0,0,0,0,0,0,0,0,0,0,0,0,0,0,0,0,0,0,0,0,0,0,0,0,0,0,0,0,0,0,0,4.9596,4.9596,0,4.959,4.959,4.959,4.9508,4.9506,4.9504,4.9502,4.9495,4.9497,4.9499,0,0,0,0,0,0,0,0,0,0,0,0,0,4.9537,4.9539,4.9596,4.9596,4.9596,4.959,4.959,4.959,4.9509,4.9506,4.9504,4.9501,4.9495,4.9497,4.9499,0,0,0,0,0,0,0,0,0,0,0,0,0,4.955,4.9539,4.9596,4.9555,4.9551,4.959,4.959,4.959,4.9509,4.9506,4.9503,4.95,4.9494,4.9497,4.9499,4.9577,0,0,4.9507,4.9508,0,0,0,0,0,0,0,0,4.955,4.9552,4.9561,4.9558,4.9553,4.9547,4.9566,4.9585,4.951,4.9525,4.9502,4.9499,4.9515,4.9516,4.9521,4.9577,4.9576,4.9507,4.9509,4.951,4.9511,0,0,0,0,0,0,0,4.9549,4.9552,4.9593,4.9561,4.9557,4.9536,4.9535,4.957,4.9537,4.9523,4.9518,4.9518,4.9512,4.9519,4.952,4.9576,4.9507,4.951,4.9511,4.9512,4.9696,4.9699,0,0,0,0,0,0,4.9554,4.9552,4.9594,4.9593,4.9544,4.954,4.9538,4.9552,4.9537,4.9531,4.9521,4.9514,4.9516,4.9517,4.952,4.9611,4.951,4.9512,4.9514,4.9693,4.9697,4.97,0,0,0,0,0,0,4.9553,4.9558,4.9594,4.9571,4.9574,4.9544,4.956,4.9553,4.956,4.9535,4.9528,4.9533,4.9514,4.9516,4.9564,4.9609,4.9514,4.9516,4.9689,4.9694,4.9699,4.9793,0,0,0,0,0,0,4.9551,4.9558,4.9588,4.9572,4.9576,4.9638,4.9563,4.9556,4.9565,4.9556,4.9545,4.954,4.9511,4.956,4.9566,4.9611,4.9518,4.9685,4.9691,4.9697,4.9785,4.98,4.9813,0,0,0,0,0,4.955,4.9614,4.9589,4.9595,4.9612,4.9641,4.9643,4.9609,4.9569,4.9598,4.9582,4.954,4.9603,4.9566,4.9572,4.9618,4.9682,4.9689,4.9696,4.9779,4.9797,4.9813,0,0,0,0,0,0,4.9635,4.9611,4.9584,4.9645,4.9646,4.9627,4.9663,4.9629,4.964,4.9632,4.9589,4.9587,4.9642,4.9634,4.9593,4.9693,4.9635,4.9644,4.9696,4.9713,4.9726,4.9727,4.952,0,0,0,0,0,4.9661,4.9687,4.9664,4.9721,4.9723,4.9693,4.9704,4.9678,4.9677,4.9677,4.9664,4.9664,4.9684,4.9698,4.9714,4.9784,4.978,4.9819,4.9832,4.9844,4.9852,4.9889,4.9906,4.9725,4.9725,4.9725,0,0,4.9715,4.9705,4.9724,4.9738,4.9735,4.9763,4.9694,4.9726,4.9746,4.9681,4.9726,4.9717,4.9714,4.9773,4.9798,4.9769,4.9902,4.9853,4.9863,4.9865,4.9899,4.9916,4.9931,4.973,4.9729,4.9728,0,0,4.9827,4.9822,4.9869,4.9868,4.9865,4.9845,4.9857,4.9844,4.9835,4.9879,4.9831,4.9855,4.9889,4.989,4.9895,5.0009,4.9971,5.0015,5.0088,5.0124,5.0138,5.0151,5.0192,5.0208,5.0024,5.0024,5.0024,0,4.9895,4.9935,4.9897,4.9933,4.9941,4.9884,4.9932,4.9932,4.9935,4.9942,4.9908,4.9952,4.9946,5.0005,5.0033,5.0038,5.005,5.0016,5.0139,5.0152,5.0163,5.0202,5.0217,5.0029,5.0029,5.0028,5.0028,0,5.0018,5.0047,5.0085,5.009,5.0102,5.0144,5.0112,5.0129,5.0102,5.0086,5.0131,5.0123,5.0137,5.0149,5.0122,5.0204,5.0186,5.0147,5.0088,5.0186,5.0222,5.0237,5.0037,5.0035,5.0033,5.0032,0,0,5.0184,5.0169,5.0183,5.0185,5.0178,5.02,5.0239,5.0253,5.0269,5.0273,5.0305,5.0336,5.03,5.0305,5.0278,5.0311,5.0403,5.0267,5.0266,5.0294,5.0493,5.0524,5.0542,5.0378,5.038,5.0382,5.0494,0,5.0294,5.036,5.0328,5.0398,5.0424,5.0371,5.0405,5.0405,5.0391,5.0411,5.0395,5.0418,5.0368,5.0372,5.0401,5.0385,5.0442,5.0377,5.0407,5.0409,5.0411,5.056,5.0592,5.0698,5.0508,5.051,5.0512,0,5.043,5.0441,5.0514,5.0503,5.0513,5.0544,5.0555,5.0575,5.0574,5.0561,5.0568,5.0534,5.0572,5.0513,5.0565,5.0521,5.0532,5.0526,5.0529,5.0531,5.0467,5.0567,5.073,5.0747,5.0533,5.0532,5.053,0,5.0546,5.0578,5.0626,5.0629,5.0617,5.0641,5.0637,5.0632,5.0643,5.0653,5.066,5.0674,5.0681,5.0693,5.0664,5.0624,5.072,5.0658,5.0711,5.0712,5.0734,5.0733,5.0902,5.074,5.074,5.0739,5.0739,0,5.0672,5.0719,5.0678,5.0708,5.0759,5.0721,5.0773,5.0763,5.076,5.0787,5.0741,5.0767,5.0726,5.0749,5.0726,5.0773,5.0776,5.0768,5.0761,5.0772,5.0774,5.0779,5.0771,5.0743,5.0743,5.0742,5.0741,0,5.0809,5.0784,5.0833,5.0818,5.0815,5.0854,5.0841,5.0868,5.0851,5.0885,5.0891,5.0865,5.0889,5.086,5.0882,5.0866,5.093,5.0912,5.0931,5.0926,5.0981,5.0977,5.116,5.1183,5.1005,5.1007,5.1008,0,5.0892,5.0927,5.0916,5.0931,5.093,5.0955,5.0966,5.0931,5.0944,5.0946,5.0973,5.0993,5.1007,5.1048,5.1031,5.1047,5.103,5.1093,5.1032,5.1042,5.1032,5.1031,5.1034,5.1106,5.1108,5.111,5.1111,0,5.1042,5.1028,5.1046,5.106,5.1075,5.1085,5.1091,5.1106,5.1068,5.1086,5.111,5.1122,5.1144,5.1165,5.1177,5.1172,5.1136,5.113,5.1143,5.1156,5.1166,5.1162,5.0966,5.1126,5.1125,5.1124,5.1123,5.1122,5.1155,5.1184,5.1181,5.1204,5.1204,5.1211,5.1236,5.1223,5.1242,5.1258,5.1235,5.1266,5.1264,5.1276,5.1276,5.1299,5.1272,5.1291,5.1296,5.1302,5.1311,5.1161,5.1301,5.1301,5.13,5.13,5.13,0,5.1303,5.1299,5.132,5.133,5.1348,5.1312,5.1317,5.1334,5.1362,5.1363,5.1379,5.1407,5.1427,5.1412,5.1428,5.145,5.1434,5.1456,5.1455,5.1454,5.1333,5.1321,5.1469,5.1469,5.1469,5.1469,5.1469,5.1469,5.1383,5.1431,5.1416,5.1464,5.1459,5.1489,5.1495,5.1502,5.1502,5.1537,5.1553,5.1543,5.1538,5.1554,5.1571,5.1566,5.1575,5.1603,5.1592,5.1479,5.1463,5.1447,5.1435,5.1605,5.1605,5.1711,5.1712,5.1713]}]]